User: anonymous   Login
Location: Trondheim
(63.4170°N, 10.4170°E)
Time: 14:28:15
(UTC+02:00)
Language:

Iridium 82 - Orbit

View from above orbital plane
View from above orbital plane
View from above satellite
View from above satellite

Ground track
Ground track

The orbit data is extracted from the following two-line orbital elements,

1 25467U 98051A   15087.27749706  .00000708  00000-0  24582-3 0  9999
2 25467 086.4035 001.4558 0002458 075.8530 284.2938 14.34219328870246
Epoch (UTC): 28 March 2015 06:39:35
Eccentricity: 0.0002458
inclination: 86.4035°
perigee height: 776 km
apogee height: 779 km
right ascension of ascending node: 1.4558°
argument of perigee: 75.8530°
revolutions per day: 14.34219328
mean anomaly at epoch: 284.2938°
orbit number at epoch: 87024

The dashed part of the orbit path shows where the satellite is in the earth's shadow,  

DLR